Time,TemperatureF,DewpointF,PressureIn,WindDirection,WindDirectionDegrees,WindSpeedMPH,WindSpeedGustMPH,Humidity,HourlyPrecipIn,Conditions,Clouds,dailyrainin,SolarRadiationWatts/m^2,SoftwareType,DateUTC
2013-07-27 00:09:00,67.6,62.0,29.81,WSW,238,1.0,8.0,83,0.00,,,0.00,0,weatherlink.com 1.10,2013-07-27 04:09:00,
2013-07-27 00:24:00,67.6,62.0,29.81,SW,235,7.0,8.0,83,0.00,,,0.00,0,weatherlink.com 1.10,2013-07-27 04:24:00,
2013-07-27 00:39:00,67.5,63.0,29.80,SW,227,2.0,10.0,84,0.00,,,0.00,0,weatherlink.com 1.10,2013-07-27 04:39:00,
2013-07-27 00:54:00,67.3,63.0,29.80,WSW,240,5.0,9.0,85,0.00,,,0.00,0,weatherlink.com 1.10,2013-07-27 04:54:00,
2013-07-27 01:10:00,67.2,63.0,29.80,SW,232,3.0,10.0,86,0.00,,,0.00,0,weatherlink.com 1.10,2013-07-27 05:10:00,
2013-07-27 01:25:00,67.1,63.0,29.80,WSW,239,7.0,9.0,87,0.00,,,0.00,0,weatherlink.com 1.10,2013-07-27 05:25:00,
2013-07-27 01:40:00,67.1,63.0,29.78,SW,229,5.0,9.0,87,0.00,,,0.00,0,weatherlink.com 1.10,2013-07-27 05:40:00,
2013-07-27 01:55:00,67.0,63.0,29.79,SW,226,6.0,8.0,88,0.00,,,0.00,0,weatherlink.com 1.10,2013-07-27 05:55:00,
2013-07-27 02:10:00,67.1,64.0,29.78,SW,224,1.0,9.0,89,0.00,,,0.00,0,weatherlink.com 1.10,2013-07-27 06:10:00,
2013-07-27 02:25:00,67.1,64.0,29.77,SW,222,1.0,6.0,89,0.00,,,0.00,0,weatherlink.com 1.10,2013-07-27 06:25:00,
2013-07-27 02:40:00,67.1,64.0,29.77,SW,231,3.0,6.0,90,0.00,,,0.00,0,weatherlink.com 1.10,2013-07-27 06:40:00,
2013-07-27 02:55:00,67.2,64.0,29.77,SW,230,4.0,7.0,90,0.00,,,0.00,0,weatherlink.com 1.10,2013-07-27 06:55:00,
2013-07-27 03:10:00,67.1,65.0,29.77,SW,233,1.0,7.0,91,0.00,,,0.00,0,weatherlink.com 1.10,2013-07-27 07:10:00,
2013-07-27 03:25:00,67.1,65.0,29.76,SW,235,4.0,7.0,91,0.00,,,0.00,0,weatherlink.com 1.10,2013-07-27 07:25:00,
2013-07-27 03:40:00,66.9,64.0,29.77,SW,235,2.0,8.0,91,0.00,,,0.00,0,weatherlink.com 1.10,2013-07-27 07:40:00,
2013-07-27 03:55:00,66.8,65.0,29.75,SW,235,3.0,5.0,92,0.00,,,0.00,0,weatherlink.com 1.10,2013-07-27 07:55:00,
2013-07-27 04:10:00,66.6,65.0,29.75,SW,235,4.0,6.0,93,0.00,,,0.00,0,weatherlink.com 1.10,2013-07-27 08:10:00,
2013-07-27 04:25:00,66.5,65.0,29.76,SW,235,3.0,5.0,93,0.00,,,0.00,0,weatherlink.com 1.10,2013-07-27 08:25:00,
2013-07-27 04:40:00,66.5,65.0,29.76,SW,235,0.0,6.0,93,0.00,,,0.00,0,weatherlink.com 1.10,2013-07-27 08:40:00,
2013-07-27 04:55:00,66.4,64.0,29.75,SW,235,2.0,6.0,93,0.00,,,0.00,0,weatherlink.com 1.10,2013-07-27 08:55:00,
2013-07-27 05:10:00,66.4,64.0,29.76,SW,235,0.0,5.0,93,0.00,,,0.00,0,weatherlink.com 1.10,2013-07-27 09:10:00,
2013-07-27 05:25:00,66.1,64.0,29.75,SW,235,0.0,4.0,94,0.00,,,0.00,0,weatherlink.com 1.10,2013-07-27 09:25:00,
2013-07-27 05:40:00,65.8,64.0,29.76,SW,235,1.0,4.0,94,0.00,,,0.00,0,weatherlink.com 1.10,2013-07-27 09:40:00,
2013-07-27 05:55:00,65.7,64.0,29.75,SW,235,0.0,5.0,95,0.00,,,0.00,0,weatherlink.com 1.10,2013-07-27 09:55:00,
2013-07-27 06:10:00,65.6,64.0,29.75,SW,235,2.0,5.0,95,0.00,,,0.00,0,weatherlink.com 1.10,2013-07-27 10:10:00,
2013-07-27 06:25:00,65.4,64.0,29.76,SW,235,0.0,3.0,95,0.00,,,0.00,0,weatherlink.com 1.10,2013-07-27 10:25:00,
2013-07-27 06:40:00,65.2,64.0,29.76,SW,235,1.0,6.0,95,0.00,,,0.00,0,weatherlink.com 1.10,2013-07-27 10:40:00,
2013-07-27 06:55:00,65.0,64.0,29.76,SW,235,0.0,5.0,95,0.00,,,0.00,0,weatherlink.com 1.10,2013-07-27 10:55:00,
2013-07-27 07:10:00,65.0,64.0,29.77,WSW,247,2.0,5.0,95,0.00,,,0.00,11,weatherlink.com 1.10,2013-07-27 11:10:00,
2013-07-27 07:25:00,64.8,63.0,29.76,WSW,247,1.0,6.0,95,0.00,,,0.00,30,weatherlink.com 1.10,2013-07-27 11:25:00,
2013-07-27 07:40:00,64.6,63.0,29.77,WSW,246,1.0,5.0,94,0.00,,,0.00,40,weatherlink.com 1.10,2013-07-27 11:40:00,
2013-07-27 07:55:00,64.5,63.0,29.77,WSW,247,3.0,6.0,94,0.00,,,0.00,46,weatherlink.com 1.10,2013-07-27 11:55:00,
2013-07-27 08:10:00,64.2,62.0,29.76,West,262,6.0,6.0,93,0.00,,,0.00,74,weatherlink.com 1.10,2013-07-27 12:10:00,
2013-07-27 08:25:00,64.2,62.0,29.77,West,276,4.0,6.0,93,0.00,,,0.00,134,weatherlink.com 1.10,2013-07-27 12:25:00,
2013-07-27 08:40:00,64.2,62.0,29.76,WNW,287,4.0,7.0,92,0.00,,,0.00,121,weatherlink.com 1.10,2013-07-27 12:40:00,
2013-07-27 08:55:00,64.6,62.0,29.76,WNW,303,3.0,7.0,92,0.00,,,0.00,113,weatherlink.com 1.10,2013-07-27 12:55:00,
2013-07-27 09:10:00,65.0,62.0,29.77,WNW,301,10.0,12.0,91,0.00,,,0.00,56,weatherlink.com 1.10,2013-07-27 13:10:00,
2013-07-27 09:25:00,65.3,63.0,29.77,NW,308,7.0,11.0,91,0.00,,,0.00,229,weatherlink.com 1.10,2013-07-27 13:25:00,
2013-07-27 09:40:00,65.9,63.0,29.76,WNW,283,6.0,7.0,89,0.00,,,0.00,113,weatherlink.com 1.10,2013-07-27 13:40:00,
2013-07-27 09:55:00,66.5,63.0,29.76,NW,321,3.0,8.0,87,0.00,,,0.00,663,weatherlink.com 1.10,2013-07-27 13:55:00,
2013-07-27 10:10:00,67.4,62.0,29.75,WNW,297,1.0,8.0,84,0.00,,,0.00,95,weatherlink.com 1.10,2013-07-27 14:10:00,
2013-07-27 10:25:00,68.5,63.0,29.75,NW,308,3.0,10.0,81,0.00,,,0.00,633,weatherlink.com 1.10,2013-07-27 14:25:00,
2013-07-27 10:40:00,69.6,62.0,29.75,North,354,3.0,7.0,77,0.00,,,0.00,387,weatherlink.com 1.10,2013-07-27 14:40:00,
2013-07-27 10:55:00,69.7,61.0,29.74,WNW,291,4.0,6.0,75,0.00,,,0.00,260,weatherlink.com 1.10,2013-07-27 14:55:00,
2013-07-27 11:10:00,70.2,61.0,29.74,West,272,0.0,9.0,72,0.00,,,0.00,824,weatherlink.com 1.10,2013-07-27 15:10:00,
2013-07-27 11:25:00,70.7,61.0,29.74,WNW,285,6.0,10.0,71,0.00,,,0.00,768,weatherlink.com 1.10,2013-07-27 15:25:00,
2013-07-27 11:41:00,71.8,61.0,29.74,WNW,283,1.0,8.0,69,0.00,,,0.00,367,weatherlink.com 1.10,2013-07-27 15:41:00,
2013-07-27 11:56:00,70.1,61.0,29.75,West,262,9.0,16.0,73,0.00,,,0.00,111,weatherlink.com 1.10,2013-07-27 15:56:00,
2013-07-27 12:11:00,66.6,62.0,29.75,WNW,302,8.0,9.0,85,0.00,,,0.00,322,weatherlink.com 1.10,2013-07-27 16:11:00,
2013-07-27 12:26:00,67.6,62.0,29.75,NNW,334,4.0,11.0,81,0.00,,,0.00,304,weatherlink.com 1.10,2013-07-27 16:26:00,
2013-07-27 12:41:00,69.2,61.0,29.74,West,274,7.0,9.0,76,0.00,,,0.00,944,weatherlink.com 1.10,2013-07-27 16:41:00,
2013-07-27 12:56:00,69.5,61.0,29.74,WNW,292,2.0,11.0,74,0.00,,,0.00,260,weatherlink.com 1.10,2013-07-27 16:56:00,
2013-07-27 13:11:00,69.1,60.0,29.75,North,350,4.0,16.0,73,0.00,,,0.00,153,weatherlink.com 1.10,2013-07-27 17:11:00,
2013-07-27 13:26:00,67.7,60.0,29.74,NW,317,5.0,11.0,75,0.00,,,0.00,418,weatherlink.com 1.10,2013-07-27 17:26:00,
2013-07-27 13:41:00,67.5,60.0,29.75,WNW,299,11.0,16.0,78,0.00,,,0.00,258,weatherlink.com 1.10,2013-07-27 17:41:00,
2013-07-27 13:56:00,68.2,61.0,29.75,WNW,290,7.0,12.0,77,0.00,,,0.00,1158,weatherlink.com 1.10,2013-07-27 17:56:00,
2013-07-27 14:11:00,69.0,60.0,29.74,WNW,301,7.0,13.0,73,0.00,,,0.00,425,weatherlink.com 1.10,2013-07-27 18:11:00,
2013-07-27 14:26:00,69.2,61.0,29.74,West,260,8.0,12.0,74,0.00,,,0.00,158,weatherlink.com 1.10,2013-07-27 18:26:00,
2013-07-27 14:41:00,67.7,60.0,29.75,NNW,328,5.0,15.0,77,0.00,,,0.00,1042,weatherlink.com 1.10,2013-07-27 18:41:00,
2013-07-27 14:56:00,68.2,58.0,29.74,WNW,303,11.0,20.0,71,0.00,,,0.00,1053,weatherlink.com 1.10,2013-07-27 18:56:00,
2013-07-27 15:11:00,67.4,60.0,29.75,NNW,345,1.0,20.0,76,0.00,,,0.00,406,weatherlink.com 1.10,2013-07-27 19:11:00,
2013-07-27 15:26:00,67.4,58.0,29.75,WNW,301,9.0,16.0,72,0.00,,,0.00,387,weatherlink.com 1.10,2013-07-27 19:26:00,
2013-07-27 15:41:00,67.7,58.0,29.75,West,267,3.0,16.0,72,0.00,,,0.00,155,weatherlink.com 1.10,2013-07-27 19:41:00,
2013-07-27 15:56:00,67.2,58.0,29.75,West,276,6.0,13.0,72,0.00,,,0.00,990,weatherlink.com 1.10,2013-07-27 19:56:00,
2013-07-27 16:11:00,67.1,57.0,29.75,NW,322,7.0,14.0,71,0.00,,,0.00,244,weatherlink.com 1.10,2013-07-27 20:11:00,
2013-07-27 16:26:00,65.2,56.0,29.76,North,359,3.0,17.0,73,0.00,,,0.00,70,weatherlink.com 1.10,2013-07-27 20:26:00,
2013-07-27 16:56:00,63.2,58.0,29.77,NW,306,8.0,11.0,83,0.02,,,0.02,366,weatherlink.com 1.10,2013-07-27 20:56:00,
2013-07-27 17:11:00,64.1,56.0,29.77,NNW,336,5.0,16.0,74,0.02,,,0.02,199,weatherlink.com 1.10,2013-07-27 21:11:00,
2013-07-27 18:11:00,65.0,55.0,29.77,NW,309,3.0,16.0,69,0.00,,,0.02,225,weatherlink.com 1.10,2013-07-27 22:11:00,
2013-07-27 18:41:00,64.5,54.0,29.78,North,359,6.0,14.0,69,0.00,,,0.02,116,weatherlink.com 1.10,2013-07-27 22:41:00,
2013-07-27 19:11:00,63.9,53.0,29.78,NE,41,2.0,11.0,68,0.00,,,0.02,339,weatherlink.com 1.10,2013-07-27 23:11:00,
2013-07-27 19:26:00,63.7,53.0,29.79,North,354,7.0,13.0,68,0.00,,,0.02,86,weatherlink.com 1.10,2013-07-27 23:26:00,
2013-07-27 19:56:00,63.6,52.0,29.79,NW,310,6.0,13.0,67,0.00,,,0.02,148,weatherlink.com 1.10,2013-07-27 23:56:00,
2013-07-27 20:11:00,62.9,52.0,29.80,NW,310,7.0,12.0,68,0.00,,,0.02,93,weatherlink.com 1.10,2013-07-28 00:11:00,
2013-07-27 20:26:00,61.3,52.0,29.80,NNE,19,8.0,14.0,71,0.00,,,0.02,35,weatherlink.com 1.10,2013-07-28 00:26:00,
2013-07-27 20:41:00,60.5,51.0,29.80,NW,312,1.0,10.0,72,0.00,,,0.02,18,weatherlink.com 1.10,2013-07-28 00:41:00,
2013-07-27 21:26:00,59.9,51.0,29.80,WNW,295,0.0,7.0,73,0.00,,,0.02,0,weatherlink.com 1.10,2013-07-28 01:26:00,
2013-07-27 21:41:00,59.6,51.0,29.81,NW,312,1.0,5.0,73,0.00,,,0.02,0,weatherlink.com 1.10,2013-07-28 01:41:00,
2013-07-27 22:11:00,59.1,52.0,29.81,NW,312,0.0,3.0,76,0.00,,,0.02,0,weatherlink.com 1.10,2013-07-28 02:11:00,
2013-07-27 22:27:00,58.7,51.0,29.82,NW,312,0.0,3.0,76,0.00,,,0.02,0,weatherlink.com 1.10,2013-07-28 02:27:00,
2013-07-27 22:42:00,58.5,52.0,29.81,NW,312,0.0,2.0,78,0.00,,,0.02,0,weatherlink.com 1.10,2013-07-28 02:42:00,
2013-07-27 23:12:00,57.4,52.0,29.82,WSW,251,3.0,5.0,81,0.00,,,0.02,0,weatherlink.com 1.10,2013-07-28 03:12:00,
2013-07-27 23:27:00,57.3,52.0,29.82,WSW,249,3.0,4.0,82,0.00,,,0.02,0,weatherlink.com 1.10,2013-07-28 03:27:00,
2013-07-27 23:42:00,57.2,52.0,29.82,WSW,249,2.0,4.0,82,0.00,,,0.02,0,weatherlink.com 1.10,2013-07-28 03:42:00,
2013-07-27 23:57:00,57.4,52.0,29.81,WSW,249,0.0,3.0,81,0.00,,,0.02,0,weatherlink.com 1.10,2013-07-28 03:57:00,